SL-14 R/B

基本信息
目录编号:
14033
目录名称:
SL-14 R/B
国际标识:
1983-037B
轨道中心:
EARTH
物体状态:
在轨
发射日期:
1983-04-23 UTC
国别:
俄罗斯(独联体) (CIS)
轨道信息
数据来源: 国际轨道数据
星历时间: 2026-09-13T20:40:47+0800
半长轴: 6987.575km
偏心率: 0.0018052
轨道倾角: 82.504°
近地点辐角: 128.042°
升交点赤经: 54.734°
平近点角: 232.243°
近地点: 596.824km
远地点: 622.052km
周期: 96.883分钟
每日圈数: 14.863226
详细信息
发射场:
PKMTR
轨道高度:
LEO
数据来源:
AOE Integration Group
参考系:
TEME
时间系统:
UTC
历元类型:
SGP4
2D轨道图
3D轨道图
轨道高度分析图
轨道倾角分析图
轨道综合分析图
查看轨道综合分析图